St. Paul, MN

7:07 PM CST on November 24, 2017 (GMT -0600)
Saint Paul Downtown-Holman

Weather History for KSTP - June, 2013

Change the Weather History Date:

Monday, June 17, 2013

  Actual Average Record
Temperature  
Mean Temperature 70 °F -  
Max Temperature 81 °F 76 °F 91 °F (2007)
Min Temperature 60 °F 57 °F 46 °F (1999)
Cooling Degree Days 6    
Growing Degree Days 20 (Base 50)    
Moisture  
Dew Point 56 °F    
Average Humidity 61    
Maximum Humidity 90    
Minimum Humidity 39    
Precipitation  
Precipitation 0.00 in - - ()
Sea Level Pressure  
Sea Level Pressure 29.92 in    
Wind  
Wind Speed 5 mph (NNW)    
Max Wind Speed 13 mph    
Max Gust Speed 20 mph    
Visibility 10 miles    
Events      
Averages and records for this station are not official NWS values.
T = Trace of Precipitation, MM = Missing Value Source: NWS Daily Summary

Daily Weather History Graph

Daily Weather History Graph

Search for Another Location

Airport or City:

Trip Planner

Search our weather history database for the weather conditions in past years. The results will help you decide how hot, cold, wet, or windy it might be!

Date:

Astronomy

Jun. 17, 2013 Rise Set
Actual Time 5:25 AM CDT 9:01 PM CDT
Civil Twilight 4:47 AM CDT 9:38 PM CDT
Nautical Twilight 3:58 AM CDT 10:28 PM CDT
Astronomical Twilight 2:52 AM CDT 11:33 PM CDT
Moon 2:27 PM CDT (6/17) 1:16 AM CDT (6/17)
Length of Visible Light 16h 50m
Length of Day
15h 36m
First Quarter, 60% of the Moon is Illuminated
Jun 17
First Quarter
Jun 23
Full
Jun 29
Last Quarter
Jul 8
New
Jul 15
First Quarter

Hourly Weather History & Observations

Time (CDT) Temp. Heat Index Dew Point Humidity Pressure Visibility Wind Dir Wind Speed Gust Speed Precip Events Conditions
12:53 AM 64.0 °F - 59.0 °F 84% 29.86 in 10.0 mi Calm Calm - N/A   Clear
1:53 AM 64.0 °F - 57.0 °F 78% 29.85 in 10.0 mi NNW 4.6 mph - N/A   Clear
2:53 AM 64.9 °F - 55.0 °F 70% 29.86 in 10.0 mi Calm Calm - N/A   Mostly Cloudy
3:53 AM 63.0 °F - 57.0 °F 81% 29.87 in 10.0 mi Calm Calm - N/A   Overcast
4:53 AM 61.0 °F - 55.0 °F 81% 29.88 in 10.0 mi Calm Calm - N/A   Partly Cloudy
5:53 AM 60.1 °F - 57.0 °F 90% 29.88 in 10.0 mi Calm Calm - N/A   Clear
6:53 AM 63.0 °F - 59.0 °F 87% 29.89 in 10.0 mi Calm Calm - N/A   Clear
7:53 AM 68.0 °F - 57.9 °F 70% 29.91 in 10.0 mi Calm Calm - N/A   Clear
8:53 AM 72.0 °F - 57.0 °F 59% 29.92 in 10.0 mi West 5.8 mph - N/A   Clear
9:18 AM 73.4 °F - 57.2 °F 57% 29.93 in 10.0 mi West 4.6 mph - N/A   Partly Cloudy
9:53 AM 75.9 °F - 55.0 °F 48% 29.91 in 10.0 mi WNW 10.4 mph 19.6 mph N/A   Clear
10:53 AM 77.0 °F - 54.0 °F 45% 29.91 in 10.0 mi NNW 12.7 mph - N/A   Partly Cloudy
11:53 AM 78.1 °F - 55.0 °F 45% 29.93 in 10.0 mi West 6.9 mph - N/A   Partly Cloudy
12:53 PM 79.0 °F - 55.0 °F 44% 29.93 in 10.0 mi West 8.1 mph - N/A   Overcast
1:53 PM 79.0 °F - 54.0 °F 42% 29.92 in 10.0 mi West 10.4 mph 18.4 mph N/A   Overcast
2:53 PM 81.0 °F 80.5 °F 54.0 °F 39% 29.91 in 10.0 mi West 11.5 mph 16.1 mph N/A   Scattered Clouds
3:44 PM 75.2 °F - 55.4 °F 50% 29.94 in 10.0 mi NNE 10.4 mph - N/A   Overcast
3:53 PM 77.0 °F - 55.0 °F 47% 29.92 in 10.0 mi NE 11.5 mph - N/A   Overcast
4:53 PM 77.0 °F - 57.9 °F 52% 29.92 in 10.0 mi North 8.1 mph - N/A   Mostly Cloudy
5:53 PM 75.0 °F - 57.9 °F 55% 29.92 in 10.0 mi NNE 11.5 mph - N/A   Mostly Cloudy
6:53 PM 75.0 °F - 54.0 °F 48% 29.92 in 10.0 mi North 9.2 mph - N/A   Clear
7:53 PM 73.9 °F - 57.0 °F 55% 29.93 in 10.0 mi North 11.5 mph - N/A   Mostly Cloudy
8:53 PM 71.1 °F - 55.9 °F 59% 29.93 in 10.0 mi North 5.8 mph - N/A   Clear
9:53 PM 69.1 °F - 55.9 °F 63% 29.96 in 10.0 mi North 11.5 mph - N/A   Clear
10:53 PM 66.9 °F - 55.9 °F 68% 29.99 in 10.0 mi NNE 11.5 mph 19.6 mph N/A   Overcast
11:53 PM 64.9 °F - 54.0 °F 68% 30.01 in 10.0 mi NE 6.9 mph - N/A   Overcast